Flag for U.S.A. Weather past 2 weeks in Pittsburgh, Pennsylvania, U.S.A.

Now
20 °F

Light snow. Overcast.


Feels Like: 4 °F
Forecast: 14 / 32 °F
Wind: 21 mph from Northwest

Location: Allegheny County Airport

Current Time: Jan 30, 2015 at 12:16:15 PM

Latest Report: Jan 30, 2015 at 11:53 AM


Visibility: 6 mi

Pressure: 30.27 "Hg

Humidity: 62%

Dew point: 9 °F

Location of PittsburghLocation

Historic Weather in Pittsburgh — Graph

°F

Pittsburgh temperature yesterday

Maximum temperature yesterday: 37 °F (at 6:53 PM)
Minimum temperature yesterday: 16 °F (at 12:53 AM)
Average temperature yesterday: 28 °F

Past Weeks' High & Low Weather Summary

 TemperatureHumidityPressure
High50 °F (Jan 17, 2:53 PM)92% (Jan 21, 9:53 AM)30.44 "Hg (Jan 21, 9:53 AM)
Low11 °F (Jan 28, 5:01 AM)33% (Jan 17, 2:53 PM)29.62 "Hg (Jan 24, 3:53 PM)
Average29 °F72%30.01 "Hg
* Reported Jan 15 10:53 AM — Jan 30 10:53 AM, Pittsburgh, Weather by CustomWeather, © 2014

Note: Actual official high and low records may vary slightly from our data, if they occured in-between our weather recording intervals... More about our weather records

Advertising

Pittsburgh weather history for previous 24 hours

 ConditionsComfort  
Time TempWeatherWind HumidityBarometerVisibility
10:53 AM
Jan 30
21 °FLight snow. Mostly cloudy.16 mph62%30.24 "Hg5 mi
9:59 AM21 °FLight snow. Mostly cloudy.14 mph68%30.15 "Hg2 mi
8:53 AM23 °FLight snow. Mostly cloudy.14 mph74%30.17 "Hg1 mi
7:53 AM24 °FLight snow. Overcast.10 mph75%30.14 "Hg2 mi
6:53 AM26 °FLight snow. Mostly cloudy.17 mph69%30.10 "Hg7 mi
5:53 AM28 °FMostly cloudy.15 mph69%30.08 "Hg10 mi
4:53 AM30 °FLight snow. Overcast.8 mph82%30.05 "Hg2 mi
3:53 AM30 °FLight snow. Mostly cloudy.9 mph82%30.02 "Hg4 mi
2:53 AM29 °FLight snow. Ice fog.7 mph85%30.02 "Hg3 mi
2:03 AM29 °FLight snow. Ice fog.8 mph85%29.97 "Hg1 mi
1:02 AM30 °FMostly cloudy.13 mph79%29.95 "Hg4 mi
12:55 AM30 °FLight snow. Overcast.12 mph79%29.95 "Hg3 mi
11:59 PM
Jan 29
31 °FLight snow. Overcast.10 mph82%29.93 "Hg2 mi
10:53 PM33 °FMostly cloudy.14 mph78%29.96 "Hg10 mi
9:53 PM34 °FLight rain. Fog.14 mph85%29.94 "Hg4 mi
8:53 PM35 °FFog.15 mph85%29.91 "Hg4 mi
7:53 PM37 °FLight rain. Fog.16 mph86%29.87 "Hg5 mi
6:53 PM37 °FLight rain. Fog.9 mph86%29.85 "Hg3 mi
5:53 PM36 °FFog.10 mph85%29.85 "Hg4 mi
4:53 PM36 °FOvercast.10 mph82%29.85 "Hg3 mi
3:53 PM36 °FOvercast.10 mph79%29.85 "Hg10 mi
2:53 PM35 °FOvercast.10 mph78%29.86 "Hg10 mi
1:53 PM33 °FOvercast.9 mph78%29.88 "Hg10 mi
12:53 PM33 °FLight freezing rain. Overcast.9 mph70%29.91 "Hg5 mi
12:02 PM32 °FLight freezing rain. Overcast.8 mph66%29.89 "Hg4 mi
Weather by CustomWeather, © 2014

See weather overviewHow to use our weather pages